TMSAT-1 - Orbit

View from above orbital plane
View from above orbital plane
View from above satellite
View from above satellite

Ground track
Ground track

The orbit data is extracted from the following two-line orbital elements,

1 25396U 98043C   13143.09215132  .00000129  00000-0  73977-4 0  5742
2 25396 098.3830 116.6627 0002348 014.8292 116.5649 14.24016468772633
Epoch (UTC): 23 May 2013 02:12:41
Eccentricity: 0.0002348
inclination: 98.3830°
perigee height: 810 km
apogee height: 813 km
right ascension of ascending node: 116.6627°
argument of perigee: 14.8292°
revolutions per day: 14.24016468
mean anomaly at epoch: 116.5649°
orbit number at epoch: 77263

The dashed part of the orbit path shows where the satellite is in the earth's shadow,  

Developed and maintained by Chris Peat, Heavens-Above GmbH. Please read the updated FAQ before sending e-mail. Imprint. DLR